Le nostre stazioni meteo in Italia

Pubblicità
Il mio iltempo24.it
Gela, Italia (16453): Temperatura & dewpoint: 09.10.2019 12:00:00 - 15.10.2019 12:00:00 (CEST)Gela, Italia (16453): velocità del vento: 09.10.2019 12:00:00 - 15.10.2019 12:00:00 (CEST)Gela, Italia (16453): direzione del vento: 09.10.2019 12:00:00 - 15.10.2019 12:00:00 (CEST)Gela, Italia (16453): reduced air pressure: 09.10.2019 12:00:00 - 15.10.2019 12:00:00 (CEST)Gela, Italia (16453): visibility: 09.10.2019 12:00:00 - 15.10.2019 12:00:00 (CEST)Gela, Italia (16453): ore di luce: 09.10.2019 12:00:00 - 15.10.2019 12:00:00 (CEST)
Data & Tempo tt [°C] td [°C] ff [km/h] ff [kn] dd ppp [hPa] vv [km] sd [min]
15.10.2019 12:00:00 - - - - - - - -
15.10.2019 11:00:00 22,8 16,6 4 2 N 1019,2 12 60
15.10.2019 10:00:00 22,0 17,0 8 4 E - 10 -
15.10.2019 09:00:00 21,0 17,0 11 6 - - 10 -
15.10.2019 08:00:00 20,0 16,4 11 6 E 1019,2 10 0
15.10.2019 07:00:00 - - - - - - - -
15.10.2019 06:00:00 - - - - - - - -
15.10.2019 05:00:00 - - - - - - - -
15.10.2019 04:00:00 - - - - - - - -
15.10.2019 03:00:00 - - - - - - - -
15.10.2019 02:00:00 - - - - - - - -
15.10.2019 01:00:00 - - - - - - - -
15.10.2019 00:00:00 - - - - - - - -
14.10.2019 23:00:00 - - - - - - - -
14.10.2019 22:00:00 - - - - - - - -
14.10.2019 21:00:00 - - - - - - - -
14.10.2019 20:00:00 22,0 18,8 8 4 SSO 1019,8 12 0
14.10.2019 19:00:00 22,0 19,0 11 6 - - 10 -
14.10.2019 18:00:00 23,0 19,0 13 7 SSO - 10 -
14.10.2019 17:00:00 23,0 19,0 13 7 SSO 1019,5 14 60
14.10.2019 16:00:00 23,0 18,0 15 8 SSO - 10 -
14.10.2019 15:00:00 23,0 18,0 13 7 - - 10 -
14.10.2019 14:00:00 22,6 18,2 18 10 SSO 1020,5 16 60
14.10.2019 13:00:00 23,0 18,0 15 8 SO - 10 -
14.10.2019 12:00:00 23,0 17,0 15 8 SSO - 10 -
14.10.2019 11:00:00 23,0 16,8 4 2 N 1021,6 16 60
14.10.2019 10:00:00 21,0 17,0 4 2 - - 10 -
14.10.2019 09:00:00 20,0 17,0 11 6 E - 10 -
14.10.2019 08:00:00 19,4 16,6 9 5 E 1021,3 10 0
14.10.2019 07:00:00 - - - - - - - -
14.10.2019 06:00:00 - - - - - - - -
14.10.2019 05:00:00 - - - - - - - -
14.10.2019 04:00:00 - - - - - - - -
14.10.2019 03:00:00 - - - - - - - -
14.10.2019 02:00:00 - - - - - - - -
14.10.2019 01:00:00 - - - - - - - -
14.10.2019 00:00:00 - - - - - - - -
13.10.2019 23:00:00 - - - - - - - -
13.10.2019 22:00:00 - - - - - - - -
13.10.2019 21:00:00 - - - - - - - -
13.10.2019 20:00:00 21,6 18,0 5 3 SSO 1022,0 12 0
13.10.2019 19:00:00 22,0 18,0 9 5 SSO - 10 -
13.10.2019 18:00:00 22,0 18,0 9 5 SSO - 10 -
13.10.2019 17:00:00 22,2 17,8 13 7 SSO 1021,3 15 60
13.10.2019 16:00:00 22,0 2,0 15 8 SSO - 10 -
13.10.2019 15:00:00 23,0 18,0 15 8 SO - 10 -
13.10.2019 14:00:00 22,4 17,8 15 8 SSO 1022,0 10 60
13.10.2019 13:00:00 22,0 17,0 13 7 SO - 10 -
13.10.2019 12:00:00 22,0 17,0 11 6 - - 10 -
13.10.2019 11:00:00 22,6 16,4 8 4 SSO 1022,9 12 60
13.10.2019 10:00:00 21,0 16,0 5 3 - - 10 -
13.10.2019 09:00:00 20,0 17,0 9 5 E - 10 -
13.10.2019 08:00:00 20,0 17,2 8 4 ENE 1022,3 10 0
13.10.2019 07:00:00 - - - - - - - -
13.10.2019 06:00:00 - - - - - - - -
13.10.2019 05:00:00 - - - - - - - -
13.10.2019 04:00:00 - - - - - - - -
13.10.2019 03:00:00 - - - - - - - -
13.10.2019 02:00:00 - - - - - - - -
13.10.2019 01:00:00 - - - - - - - -
13.10.2019 00:00:00 - - - - - - - -
12.10.2019 23:00:00 - - - - - - - -
12.10.2019 22:00:00 - - - - - - - -
12.10.2019 21:00:00 - - - - - - - -
12.10.2019 20:00:00 22,0 18,4 4 2 N 1022,3 12 0
12.10.2019 19:00:00 22,0 18,0 5 3 O - 10 -
12.10.2019 18:00:00 23,0 19,0 8 4 O - 10 -
12.10.2019 17:00:00 23,2 18,1 9 5 SO 1022,1 18 60
12.10.2019 16:00:00 23,0 18,0 11 6 SO - 10 -
12.10.2019 15:00:00 23,0 17,0 13 7 SO - 10 -
12.10.2019 14:00:00 23,0 15,6 13 7 OSO 1023,3 18 60
12.10.2019 13:00:00 23,0 16,0 13 7 OSO - 10 -
12.10.2019 12:00:00 23,0 14,0 9 5 - - 10 -
12.10.2019 11:00:00 23,0 14,8 4 2 N 1023,1 15 60
12.10.2019 10:00:00 22,0 16,0 4 2 - - 10 -
12.10.2019 09:00:00 20,0 16,0 5 3 ENE - 10 -
12.10.2019 08:00:00 20,0 16,4 8 4 ENE 1022,0 15 12
12.10.2019 07:00:00 - - - - - - - -
12.10.2019 06:00:00 - - - - - - - -
12.10.2019 05:00:00 - - - - - - - -
12.10.2019 04:00:00 - - - - - - - -
12.10.2019 03:00:00 - - - - - - - -
12.10.2019 02:00:00 - - - - - - - -
12.10.2019 01:00:00 - - - - - - - -
12.10.2019 00:00:00 - - - - - - - -
11.10.2019 23:00:00 - - - - - - - -
11.10.2019 22:00:00 - - - - - - - -
11.10.2019 21:00:00 - - - - - - - -
11.10.2019 20:00:00 22,0 18,6 2 1 - 1020,4 10 0
11.10.2019 19:00:00 22,0 18,0 5 3 O - 10 -
11.10.2019 18:00:00 23,0 19,0 8 4 OSO - 10 -
11.10.2019 17:00:00 23,4 17,4 9 5 - 1019,6 10 60
11.10.2019 16:00:00 23,0 18,0 11 6 - - 10 -
11.10.2019 15:00:00 23,0 17,0 13 7 SO - 10 -
11.10.2019 14:00:00 23,4 17,4 15 8 SO 1019,9 23 60
11.10.2019 13:00:00 23,0 16,0 8 4 - - 10 -
11.10.2019 12:00:00 23,0 16,0 9 5 SO - 10 -
11.10.2019 11:00:00 22,8 15,7 4 2 N 1020,1 23 60
11.10.2019 10:00:00 22,0 16,0 4 2 - - 10 -
11.10.2019 09:00:00 21,0 16,0 4 2 - - 10 -
11.10.2019 08:00:00 20,2 16,0 5 3 ENE 1018,3 15 0
11.10.2019 07:00:00 - - - - - - - -
11.10.2019 06:00:00 - - - - - - - -
11.10.2019 05:00:00 - - - - - - - -
11.10.2019 04:00:00 - - - - - - - -
11.10.2019 03:00:00 - - - - - - - -
11.10.2019 02:00:00 - - - - - - - -
11.10.2019 01:00:00 - - - - - - - -
11.10.2019 00:00:00 - - - - - - - -
10.10.2019 23:00:00 - - - - - - - -
10.10.2019 22:00:00 - - - - - - - -
10.10.2019 21:00:00 - - - - - - - -
10.10.2019 20:00:00 22,0 18,2 4 2 N 1016,0 14 0
10.10.2019 19:00:00 22,0 18,0 5 3 S - 10 -
10.10.2019 18:00:00 23,0 18,0 4 2 - - 10 -
10.10.2019 17:00:00 23,0 17,9 11 6 OSO 1014,7 20 60
10.10.2019 16:00:00 23,0 19,0 13 7 OSO - 10 -
10.10.2019 15:00:00 24,0 19,0 13 7 OSO - 10 -
10.10.2019 14:00:00 24,4 17,2 8 4 SO 1014,5 25 48
10.10.2019 13:00:00 24,0 16,0 13 7 ENE - 10 -
10.10.2019 12:00:00 24,0 16,0 13 7 ENE - 10 -
10.10.2019 11:00:00 22,6 16,9 13 7 ENE 1015,3 20 60
10.10.2019 10:00:00 22,0 18,0 16 9 ENE - 10 -
10.10.2019 09:00:00 22,0 18,0 15 8 NNE - 10 -
10.10.2019 08:00:00 21,8 18,0 24 13 ENE 1014,0 15 0
10.10.2019 07:00:00 - - - - - - - -
10.10.2019 06:00:00 - - - - - - - -
10.10.2019 05:00:00 - - - - - - - -
10.10.2019 04:00:00 - - - - - - - -
10.10.2019 03:00:00 - - - - - - - -
10.10.2019 02:00:00 - - - - - - - -
10.10.2019 01:00:00 - - - - - - - -
10.10.2019 00:00:00 - - - - - - - -
09.10.2019 23:00:00 - - - - - - - -
09.10.2019 22:00:00 - - - - - - - -
09.10.2019 21:00:00 - - - - - - - -
09.10.2019 20:00:00 21,8 16,7 18 10 ENE 1015,1 12 0
09.10.2019 19:00:00 22,0 16,0 21 11 E - 10 -
09.10.2019 18:00:00 23,0 16,0 21 11 ENE - 10 -
09.10.2019 17:00:00 23,4 17,2 26 14 ENE 1015,1 18 60
09.10.2019 16:00:00 23,0 18,0 28 15 ENE - 10 -
09.10.2019 15:00:00 22,0 18,0 26 14 - - 10 -
09.10.2019 14:00:00 24,0 16,5 29 16 ENE 1016,7 10 30
09.10.2019 13:00:00 23,0 17,0 21 11 ENE - 10 -
09.10.2019 12:00:00 23,0 17,0 21 11 ENE - 10 -

tt = Temperatura
td = dewpoint
ff = velocità del vento
dd = direzione del vento
ppp = reduced air pressure
vv = visibility
sd = ore di luce

Stazioni seguenti

WeatherPro
AMSI
MeteoEarth